This is the latest recevied weather packets stored in our database for station/object KB5DPX. If no packets are shown the sender has not sent any weather packets the latest 10 day(s).
| Time | Temp. | Humidity | Pressure | Rain* | Wind** | Luminosity | Snow |
|---|---|---|---|---|---|---|---|
| 1777393053 | 9.44° C | 83% | 1006.9 hPa | 0.25 mm | - | 353 W/m² | - |
| 1777392770 | 9.44° C | 83% | 1006.7 hPa | 0.25 mm | - | 316 W/m² | - |
| 1777392455 | 9.44° C | 84% | 1006.5 hPa | 0.25 mm | - | 272 W/m² | - |
| 1777392168 | 9.44° C | 85% | 1006.5 hPa | 0.25 mm | - | 262 W/m² | - |
| 1777391867 | 9.44° C | 87% | 1006.5 hPa | 0.25 mm | - | 220 W/m² | - |
| 1777391571 | 9.44° C | 87% | 1006.4 hPa | 0.25 mm | - | 202 W/m² | - |
| 1777391259 | 9.44° C | 87% | 1006.3 hPa | 0.25 mm | - | 183 W/m² | - |
| 1777390970 | 8.89° C | 87% | 1006.1 hPa | 0.25 mm | - | 239 W/m² | - |
| 1777390659 | 8.89° C | 87% | 1006.2 hPa | 0.25 mm | - | 241 W/m² | - |
| 1777390375 | 8.89° C | 88% | 1006.1 hPa | 0.25 mm | - | 127 W/m² | - |
| 1777390055 | 8.89° C | 87% | 1006.1 hPa | 0.25 mm | - | 142 W/m² | - |
| 1777389752 | 9.44° C | 88% | 1005.9 hPa | 0.25 mm | - | 155 W/m² | - |
| 1777389463 | 9.44° C | 87% | 1005.7 hPa | 0 mm | - | 172 W/m² | - |
| 1777389151 | 9.44° C | 86% | 1005.7 hPa | 0 mm | - | 149 W/m² | - |
| 1777388867 | 9.44° C | 86% | 1005.5 hPa | 0 mm | - | 141 W/m² | - |
| 1777388554 | 9.44° C | 87% | 1005.3 hPa | 0 mm | - | 151 W/m² | - |
| 1777388271 | 9.44° C | 88% | 1005.2 hPa | 0 mm | - | 148 W/m² | - |
| 1777387955 | 9.44° C | 88% | 1005 hPa | 0 mm | - | 169 W/m² | - |
| 1777387670 | 9.44° C | 88% | 1004.8 hPa | 0 mm | - | 186 W/m² | - |
| 1777387375 | 10° C | 88% | 1004.7 hPa | 0 mm | - | 155 W/m² | - |
| 1777387063 | 10° C | 87% | 1004.6 hPa | 0 mm | - | 118 W/m² | - |
| 1777386772 | 10° C | 87% | 1004.6 hPa | 0 mm | - | 98 W/m² | - |
| 1777386470 | 10° C | 86% | 1004.5 hPa | 0 mm | - | 70 W/m² | - |
| 1777386156 | 10° C | 87% | 1004.3 hPa | 0 mm | - | 76 W/m² | - |
| 1777385852 | 10° C | 86% | 1004.2 hPa | 0 mm | - | 77 W/m² | - |
* Rain latest hour (hover to see other rain measurements)
** Current wind speed in m/s (hover to see current wind gust speed)